Regional Weather Roundup
Issued by NWS

Home | Current Version | Previous Version | Graphics & Text | Print | Product List | Glossary Off
Versions: 1 2 3 4 5 6 7 8 9 10 11 12 13 14 15 16 17 18 19 20 21 22 23 24 25 26 27 28 29 30 31 32 33 34 35 36 37 38 39 40 41 42 43 44 45 46 47 48 49 50

000
ASUS43 KMKX 010500
RWRWI

WISCONSIN REGIONAL WEATHER ROUNDUP
NATIONAL WEATHER SERVICE MILWAUKEE/SULLIVAN WI
1200 AM CDT WED OCT 01 2014

NOTE: "FAIR" INDICATES FEW OR NO CLOUDS BELOW 12,000 FEET WITH NO
SIGNIFICANT WEATHER AND/OR OBSTRUCTIONS TO VISIBILITY.

WIZ001-002-006>008-014>016-023>028-010600-
NORTHWEST WISCONSIN

CITY           SKY/WX    TMP DP  RH WIND       PRES   REMARKS
SUPERIOR ARPT  MOCLDY    47  45  94 E9G16     29.94F
ASHLAND        CLOUDY    39  38  96 E3        29.96F FOG
HAYWARD        CLOUDY    48  43  82 S10       29.94F
SIREN          CLOUDY    50  43  75 SE7       29.91R
CUMBERLAND     CLOUDY    45  41  87 SE10      29.93F
RICE LAKE      CLOUDY    47  42  84 SE12G20   29.95F
CHETEK         CLOUDY    46  43  88 SE14G20   29.97S
LADYSMITH      MOCLDY    46  43  89 SE8       30.00R
EAU CLAIRE     NOT AVBL
MENOMONIE      CLOUDY    47  43  87 E8        29.97F
NEW RICHMOND   CLOUDY    49  43  80 SE12G17   29.88F
OSCEOLA        CLOUDY    50  44  79 E13G18    29.90F
$$

WIZ003>005-009-010-017-018-010600-
NORTH CENTRAL WISCONSIN

CITY           SKY/WX    TMP DP  RH WIND       PRES   REMARKS
MANITOWISH WTR PTCLDY    44  44 100 S8        30.00S
ARBOR VITAE    MOCLDY    46  43  91 S6        30.01S
WOODRUFF       MOCLDY    46  43  91 S6        30.01S
RHINELANDER    CLOUDY    43  42  97 S9        30.03F
EAGLE RIVER    CLOUDY    44  43  96 S8        30.02S
LAND O LAKES   CLOUDY    46  43  91 SE8       30.02S
PHILLIPS       CLOUDY    44  42  92 SE9       29.98F
TOMAHAWK       CLOUDY    43  41  93 SE6       30.03S
MEDFORD        CLOUDY    44  42  93 SE6       30.01S
MERRILL        CLOUDY    45  43  94 S8        30.04S
$$

WIZ029-030-035-036-043>047-010600-
CENTRAL WISCONSIN

CITY           SKY/WX    TMP DP  RH WIND       PRES   REMARKS
WAUSAU         CLOUDY    45  42  89 SE9       30.02F
MOSINEE        CLOUDY    43  43 100 SE7       30.04F FOG
MARSHFIELD     CLOUDY    46  43  89 SE10      30.02S
STEVENS POINT  CLOUDY    44  42  94 E9        30.04F FOG
WAUPACA        CLOUDY    49  46  90 E6        30.06S
WAUTOMA        NOT AVBL
WISC RAPIDS    CLOUDY    47  43  86 SE8       30.04F
CAMP DOUGLAS   NOT AVBL
$$

WIZ011>013-019>022-031-037>040-048>050-010600-
NORTHEAST WISCONSIN

CITY           SKY/WX    TMP DP  RH WIND       PRES   REMARKS
ANTIGO         CLOUDY    43  42  97 SE9       30.04F
SHAWANO        CLOUDY    49  45  86 S6        30.06F
OCONTO         CLOUDY    48  47  97 CALM      30.06F
STURGEON BAY   NOT AVBL
GREEN BAY      CLOUDY    48  46  93 CALM      30.06F
MANITOWOC      NOT AVBL
APPLETON       CLOUDY    46  43  87 CALM      30.06F
CLINTONVILLE   CLOUDY    46  43  87 SE3       30.06F
OSHKOSH        CLOUDY    48  45  89 CALM      30.05F
$$

WIZ032>034-041-042-053>061-010600-
SOUTHWEST WISCONSIN

CITY           SKY/WX    TMP DP  RH WIND       PRES   REMARKS
LA CROSSE      CLOUDY    49  43  80 SE10      29.97F
SPARTA         MOCLDY    45  41  86 E6        30.01F
VIROQUA        CLOUDY    44  44 100 E10       29.98F
BOSCOBEL       MOCLDY    46  42  86 NE3       30.00F
PRAIRIE DU CHI MOCLDY    47  42  81 E9        29.96F
PLATTEVILLE    PTCLDY    47  44  90 E12       30.00F
$$

WIZ056-057-062-063-064-067-068-010600-
SOUTH CENTRAL WISCONSIN

CITY           SKY/WX    TMP DP  RH WIND       PRES   REMARKS
REEDSBURG      PTCLDY    41  40  98 E3        30.01F
BARABOO/DELLS  PTCLDY    43  41  93 E7        30.02F
LONE ROCK      NOT AVBL
MINERAL POINT  PTCLDY    46  43  87 E8        30.00S
MADISON        CLOUDY    50  45  83 E12       30.03S
MIDDLETON      CLOUDY    51  46  83 E13       30.02S
WATERTOWN      CLOUDY    46  46 100 E6        30.03F
MONROE         CLOUDY    46  45  93 E6        30.00F
JANESVILLE     CLOUDY    52  46  82 E6        30.01S
$$

WIZ051-052-058>065-066-070>072-010600-
SOUTHEAST WISCONSIN

CITY           SKY/WX    TMP DP  RH WIND       PRES   REMARKS
MILWAUKEE      CLOUDY    51  49  92 NW6       30.04S
WAUKESHA       CLOUDY    45  45 100 N3        30.05F FOG
MILWAUKEE/TIMM CLOUDY    48  45  87 N3        30.05F
RACINE         CLOUDY    55  48  77 CALM      30.05S
BURLINGTON     CLOUDY    47  47 100 NE5       30.03F
KENOSHA        CLOUDY    52  51  97 CALM      30.03F
FOND DU LAC    CLOUDY    48  45  89 CALM      30.05F
SHEBOYGAN      CLOUDY    48  46  93 N3        30.05
WEST BEND      DRIZZLE   46  45  93 NE3       30.05S
JUNEAU         CLOUDY    46  44  92 NE3       30.05F
$$

LSZ147-162-010600-
LAKE SUPERIOR

STATION/POSITION TIME  TEMP    WIND        PRES    WAVE
                       AIR SEA DIR/SP/G            HT/PER
                 (UTC) (F)     (DEG/KT/KT) (MB)    (FT/S)
W MID LAKE BUOY  0350   47 50  110/ 14/ 16 1016.4F   3/ 4
DEVILS ISLAND    0400   50      90/ 11/ 12 1015.8F
SAXON HARBOR     0400   40      CALM  /  4 1014.9F
$$

LMZ867-665-643>646-010600-
LAKE MICHIGAN

STATION/POSITION TIME  TEMP    WIND        PRES    WAVE
                       AIR SEA DIR/SP/G            HT/PER
                 (UTC) (F)     (DEG/KT/KT) (MB)    (FT/S)
CHAMBERS ISLAND  0400   51      CALM  /  3 1018.3S
S GREEN BAY BUOY 0400   50                 1019.0F
N MID LAKE BUOY  0350   54 58  110/ 14/ 16 1018.0R   2/ 3
NORTHPORT PIER   0400   55      90/  4/  8 1017.6F
KEWAUNEE LAKESHO 0400   49     300/  4/  6 1016.9F
SHEBOYGAN LAKESH 0400   50 54  350/  8/  9 1018.1F
PORT WASHINGTON  0400   51     340/  5/  7 1018.3S
ATWATER BUOY     0400   55     110/  6/  8 1018.5R
MILWAUKEE LAKESH 0400   54      90/  7/  9   N/A
S MID LAKE BUOY  0350   56 61   50/  8/ 10 1017.3F   2/ 6
KENOSHA   LAKESH 0400   56     110/  5/  7 1016.9F
$$

TC  - TEMPERATURE IN CELSIUS
VSB - VISIBILITY IN STATUTE MILES
WCI - WIND CHILL INDEX
HX  - HEAT INDEX



USA.gov is the U.S. government's official web portal to all federal, state and local government web resources and services.